Year,Month,Day,Hour,Minute,Value (Times are PST for temperature in C)
2009,04,24,00,00,7.20
2009,04,24,00,01,7.30
2009,04,24,00,02,7.30
2009,04,24,00,03,7.30
2009,04,24,00,04,7.30
2009,04,24,00,05,7.30
2009,04,24,00,06,7.40
2009,04,24,00,07,7.40
2009,04,24,00,08,7.50
2009,04,24,00,09,7.50
2009,04,24,00,10,7.50
2009,04,24,00,11,7.50
2009,04,24,00,12,7.50
2009,04,24,00,13,7.50
2009,04,24,00,14,7.50
2009,04,24,00,15,7.50
2009,04,24,00,16,7.50
2009,04,24,00,17,7.50
2009,04,24,00,18,7.50
2009,04,24,00,19,7.50
2009,04,24,00,20,7.50
2009,04,24,00,21,7.50
2009,04,24,00,22,7.50
2009,04,24,00,23,7.50
2009,04,24,00,24,7.50
2009,04,24,00,25,7.50
2009,04,24,00,26,7.50
2009,04,24,00,27,7.50
2009,04,24,00,28,7.50
2009,04,24,00,29,7.50
2009,04,24,00,30,7.40
2009,04,24,00,31,7.40
2009,04,24,00,32,7.30
2009,04,24,00,33,7.30
2009,04,24,00,34,7.20
2009,04,24,00,35,7.20
2009,04,24,00,36,7.20
2009,04,24,00,37,7.20
2009,04,24,00,38,7.10
2009,04,24,00,39,7.10
2009,04,24,00,40,7.20
2009,04,24,00,41,7.20
2009,04,24,00,42,7.20
2009,04,24,00,43,7.20
2009,04,24,00,44,7.20
2009,04,24,00,45,7.20
2009,04,24,00,46,7.20
2009,04,24,00,47,7.20
2009,04,24,00,48,7.20
2009,04,24,00,49,7.20
2009,04,24,00,50,7.20
2009,04,24,00,51,7.20
2009,04,24,00,52,7.20
2009,04,24,00,53,7.20
2009,04,24,00,54,7.10
2009,04,24,00,55,7.10
2009,04,24,00,56,7.20
2009,04,24,00,57,7.20
2009,04,24,00,58,7.10
2009,04,24,00,59,7.10
2009,04,24,01,00,7.10
2009,04,24,01,01,7.00
2009,04,24,01,02,7.00
2009,04,24,01,03,7.00
2009,04,24,01,04,6.90
2009,04,24,01,05,6.90
2009,04,24,01,06,6.90
2009,04,24,01,07,6.80
2009,04,24,01,08,6.80
2009,04,24,01,09,6.80
2009,04,24,01,10,6.80
2009,04,24,01,11,6.80
2009,04,24,01,12,6.70
2009,04,24,01,13,6.60
2009,04,24,01,14,6.60
2009,04,24,01,15,6.50
2009,04,24,01,16,6.50
2009,04,24,01,17,6.40
2009,04,24,01,18,6.40
2009,04,24,01,19,6.40
2009,04,24,01,20,6.40
2009,04,24,01,21,6.40
2009,04,24,01,22,6.40
2009,04,24,01,23,6.40
2009,04,24,01,24,6.40
2009,04,24,01,25,6.40
2009,04,24,01,26,6.40
2009,04,24,01,27,6.40
2009,04,24,01,28,6.40
2009,04,24,01,29,6.40
2009,04,24,01,30,6.40
2009,04,24,01,31,6.40
2009,04,24,01,32,6.40
2009,04,24,01,33,6.40
2009,04,24,01,34,6.40
2009,04,24,01,35,6.50
2009,04,24,01,36,6.50
2009,04,24,01,37,6.60
2009,04,24,01,38,6.60
2009,04,24,01,39,6.60
2009,04,24,01,40,6.60
2009,04,24,01,41,6.60
2009,04,24,01,42,6.60
2009,04,24,01,43,6.60
2009,04,24,01,44,6.60
2009,04,24,01,45,6.60
2009,04,24,01,46,6.60
2009,04,24,01,47,6.60
2009,04,24,01,48,6.60
2009,04,24,01,49,6.50
2009,04,24,01,50,6.50
2009,04,24,01,51,6.50
2009,04,24,01,52,6.40
2009,04,24,01,53,6.40
2009,04,24,01,54,6.40
2009,04,24,01,55,6.30
2009,04,24,01,56,6.30
2009,04,24,01,57,6.30
2009,04,24,01,58,6.20
2009,04,24,01,59,6.20
2009,04,24,02,00,6.10
2009,04,24,02,01,6.10
2009,04,24,02,02,6.00
2009,04,24,02,03,5.90
2009,04,24,02,04,5.90
2009,04,24,02,05,5.90
2009,04,24,02,06,5.80
2009,04,24,02,07,5.80
2009,04,24,02,08,5.80
2009,04,24,02,09,5.80
2009,04,24,02,10,5.80
2009,04,24,02,11,5.90
2009,04,24,02,12,5.90
2009,04,24,02,13,5.90
2009,04,24,02,14,5.90
2009,04,24,02,15,5.90
2009,04,24,02,16,5.90
2009,04,24,02,17,5.90
2009,04,24,02,18,6.00
2009,04,24,02,19,6.00
2009,04,24,02,20,6.00
2009,04,24,02,21,6.00
2009,04,24,02,22,6.10
2009,04,24,02,23,6.10
2009,04,24,02,24,6.10
2009,04,24,02,25,6.10
2009,04,24,02,26,6.10
2009,04,24,02,27,6.10
2009,04,24,02,28,6.00
2009,04,24,02,29,6.00
2009,04,24,02,30,6.00
2009,04,24,02,31,5.90
2009,04,24,02,32,5.90
2009,04,24,02,33,5.80
2009,04,24,02,34,5.80
2009,04,24,02,35,5.80
2009,04,24,02,36,5.70
2009,04,24,02,37,5.70
2009,04,24,02,38,5.70
2009,04,24,02,39,5.60
2009,04,24,02,40,5.60
2009,04,24,02,41,5.60
2009,04,24,02,42,5.50
2009,04,24,02,43,5.50
2009,04,24,02,44,5.40
2009,04,24,02,45,5.40
2009,04,24,02,46,5.40
2009,04,24,02,47,5.30
2009,04,24,02,48,5.30
2009,04,24,02,49,5.30
2009,04,24,02,50,5.20
2009,04,24,02,51,5.20
2009,04,24,02,52,5.20
2009,04,24,02,53,5.20
2009,04,24,02,54,5.10
2009,04,24,02,55,5.10
2009,04,24,02,56,5.10
2009,04,24,02,57,5.10
2009,04,24,02,58,5.10
2009,04,24,02,59,5.00
2009,04,24,03,00,5.00
2009,04,24,03,01,4.90
2009,04,24,03,02,4.90
2009,04,24,03,03,4.80
2009,04,24,03,04,4.80
2009,04,24,03,05,4.70
2009,04,24,03,06,4.70
2009,04,24,03,07,4.60
2009,04,24,03,08,4.60
2009,04,24,03,09,4.50
2009,04,24,03,10,4.50
2009,04,24,03,11,4.40
2009,04,24,03,12,4.40
2009,04,24,03,13,4.30
2009,04,24,03,14,4.30
2009,04,24,03,15,4.30
2009,04,24,03,16,4.20
2009,04,24,03,17,4.20
2009,04,24,03,18,4.20
2009,04,24,03,19,4.10
2009,04,24,03,20,4.00
2009,04,24,03,21,4.00
2009,04,24,03,22,3.90
2009,04,24,03,23,3.80
2009,04,24,03,24,3.80
2009,04,24,03,25,3.80
2009,04,24,03,26,3.70
2009,04,24,03,27,3.70
2009,04,24,03,28,3.60
2009,04,24,03,29,3.60
2009,04,24,03,30,3.50
2009,04,24,03,31,3.50
2009,04,24,03,32,3.40
2009,04,24,03,33,3.40
2009,04,24,03,34,3.40
2009,04,24,03,35,3.40
2009,04,24,03,36,3.40
2009,04,24,03,37,3.40
2009,04,24,03,38,3.40
2009,04,24,03,39,3.40
2009,04,24,03,40,3.40
2009,04,24,03,41,3.40
2009,04,24,03,42,3.40
2009,04,24,03,43,3.40
2009,04,24,03,44,3.40
2009,04,24,03,45,3.40
2009,04,24,03,46,3.40
2009,04,24,03,47,3.50
2009,04,24,03,48,3.50
2009,04,24,03,49,3.50
2009,04,24,03,50,3.40
2009,04,24,03,51,3.40
2009,04,24,03,52,3.40
2009,04,24,03,53,3.40
2009,04,24,03,54,3.40
2009,04,24,03,55,3.30
2009,04,24,03,56,3.20
2009,04,24,03,57,3.10
2009,04,24,03,58,3.00
2009,04,24,03,59,2.90
2009,04,24,04,00,2.80
2009,04,24,04,01,2.80
2009,04,24,04,02,2.80
2009,04,24,04,03,2.80
2009,04,24,04,04,2.70
2009,04,24,04,05,2.70
2009,04,24,04,06,2.70
2009,04,24,04,07,2.60
2009,04,24,04,08,2.60
2009,04,24,04,09,2.60
2009,04,24,04,10,2.60
2009,04,24,04,11,2.60
2009,04,24,04,12,2.60
2009,04,24,04,13,2.60
2009,04,24,04,14,2.60
2009,04,24,04,15,2.60
2009,04,24,04,16,2.60
2009,04,24,04,17,2.60
2009,04,24,04,18,2.60
2009,04,24,04,19,2.70
2009,04,24,04,20,2.70
2009,04,24,04,21,2.70
2009,04,24,04,22,2.80
2009,04,24,04,23,2.80
2009,04,24,04,24,2.90
2009,04,24,04,25,2.90
2009,04,24,04,26,2.90
2009,04,24,04,27,3.00
2009,04,24,04,28,3.10
2009,04,24,04,29,3.10
2009,04,24,04,30,3.10
2009,04,24,04,31,3.20
2009,04,24,04,32,3.20
2009,04,24,04,33,3.20
2009,04,24,04,34,3.30
2009,04,24,04,35,3.30
2009,04,24,04,36,3.40
2009,04,24,04,37,3.40
2009,04,24,04,38,3.50
2009,04,24,04,39,3.50
2009,04,24,04,40,3.60
2009,04,24,04,41,3.70
2009,04,24,04,42,3.70
2009,04,24,04,43,3.70
2009,04,24,04,44,3.70
2009,04,24,04,45,3.70
2009,04,24,04,46,3.80
2009,04,24,04,47,3.80
2009,04,24,04,48,3.80
2009,04,24,04,49,3.80
2009,04,24,04,50,3.70
2009,04,24,04,51,3.70
2009,04,24,04,52,3.60
2009,04,24,04,53,3.50
2009,04,24,04,54,3.50
2009,04,24,04,55,3.40
2009,04,24,04,56,3.30
2009,04,24,04,57,3.30
2009,04,24,04,58,3.30
2009,04,24,04,59,3.30
2009,04,24,05,00,3.20
2009,04,24,05,01,3.20
2009,04,24,05,02,3.20
2009,04,24,05,03,3.20
2009,04,24,05,04,3.20
2009,04,24,05,05,3.10
2009,04,24,05,06,3.10
2009,04,24,05,07,3.10
2009,04,24,05,08,3.10
2009,04,24,05,09,3.10
2009,04,24,05,10,3.10
2009,04,24,05,11,3.10
2009,04,24,05,12,3.10
2009,04,24,05,13,3.10
2009,04,24,05,14,3.00
2009,04,24,05,15,3.00
2009,04,24,05,16,3.00
2009,04,24,05,17,2.90
2009,04,24,05,18,2.90
2009,04,24,05,19,2.90
2009,04,24,05,20,2.90
2009,04,24,05,21,2.90
2009,04,24,05,22,2.90
2009,04,24,05,23,2.90
2009,04,24,05,24,2.90
2009,04,24,05,25,2.90
2009,04,24,05,26,2.90
2009,04,24,05,27,2.90
2009,04,24,05,28,2.90
2009,04,24,05,29,3.00
2009,04,24,05,30,3.00
2009,04,24,05,31,3.00
2009,04,24,05,32,3.10
2009,04,24,05,33,3.10
2009,04,24,05,34,3.10
2009,04,24,05,35,3.10
2009,04,24,05,36,3.10
2009,04,24,05,37,3.10
2009,04,24,05,38,3.10
2009,04,24,05,39,3.10
2009,04,24,05,40,3.10
2009,04,24,05,41,3.10
2009,04,24,05,42,3.10
2009,04,24,05,43,3.20
2009,04,24,05,44,3.10
2009,04,24,05,45,3.10
2009,04,24,05,46,3.10
2009,04,24,05,47,3.20
2009,04,24,05,48,3.20
2009,04,24,05,49,3.20
2009,04,24,05,50,3.20
2009,04,24,05,51,3.20
2009,04,24,05,52,3.30
2009,04,24,05,53,3.30
2009,04,24,05,54,3.40
2009,04,24,05,55,3.40
2009,04,24,05,56,3.50
2009,04,24,05,57,3.50
2009,04,24,05,58,3.60
2009,04,24,05,59,3.60
2009,04,24,06,00,3.70
2009,04,24,06,01,3.70
2009,04,24,06,02,3.70
2009,04,24,06,03,3.70
2009,04,24,06,04,3.70
2009,04,24,06,05,3.70
2009,04,24,06,06,3.70
2009,04,24,06,07,3.80
2009,04,24,06,08,3.80
2009,04,24,06,09,3.80
2009,04,24,06,10,3.80
2009,04,24,06,11,3.80
2009,04,24,06,12,3.90
2009,04,24,06,13,3.90
2009,04,24,06,14,3.90
2009,04,24,06,15,3.90
2009,04,24,06,16,4.00
2009,04,24,06,17,4.00
2009,04,24,06,18,4.10
2009,04,24,06,19,4.10
2009,04,24,06,20,4.20
2009,04,24,06,21,4.20
2009,04,24,06,22,4.20
2009,04,24,06,23,4.30
2009,04,24,06,24,4.30
2009,04,24,06,25,4.30
2009,04,24,06,26,4.30
2009,04,24,06,27,4.30
2009,04,24,06,28,4.30
2009,04,24,06,29,4.40
2009,04,24,06,30,4.40
2009,04,24,06,31,4.40
2009,04,24,06,32,4.40
2009,04,24,06,33,4.40
2009,04,24,06,34,4.40
2009,04,24,06,35,4.40
2009,04,24,06,36,4.40
2009,04,24,06,37,4.40
2009,04,24,06,38,4.40
2009,04,24,06,39,4.40
2009,04,24,06,40,4.40
2009,04,24,06,41,4.40
2009,04,24,06,42,4.40
2009,04,24,06,43,4.40
2009,04,24,06,44,4.40
2009,04,24,06,45,4.40
2009,04,24,06,46,4.40
2009,04,24,06,47,4.40
2009,04,24,06,48,4.40
2009,04,24,06,49,4.40
2009,04,24,06,50,4.40
2009,04,24,06,51,4.40
2009,04,24,06,52,4.40
2009,04,24,06,53,4.40
2009,04,24,06,54,4.40
2009,04,24,06,55,4.40
2009,04,24,06,56,4.40
2009,04,24,06,57,4.30
2009,04,24,06,58,4.30
2009,04,24,06,59,4.30
2009,04,24,07,00,4.30
2009,04,24,07,01,4.30
2009,04,24,07,02,4.30
2009,04,24,07,03,4.40
2009,04,24,07,04,4.40
2009,04,24,07,05,4.40
2009,04,24,07,06,4.50
2009,04,24,07,07,4.50
2009,04,24,07,08,4.60
2009,04,24,07,09,4.60
2009,04,24,07,10,4.70
2009,04,24,07,11,4.70
2009,04,24,07,12,4.70
2009,04,24,07,13,4.70
2009,04,24,07,14,4.70
2009,04,24,07,15,4.70
2009,04,24,07,16,4.70
2009,04,24,07,17,4.70
2009,04,24,07,18,4.80
2009,04,24,07,19,4.80
2009,04,24,07,20,4.80
2009,04,24,07,21,4.80
2009,04,24,07,22,4.80
2009,04,24,07,23,4.80
2009,04,24,07,24,4.80
2009,04,24,07,25,4.80
2009,04,24,07,26,4.90
2009,04,24,07,27,4.90
2009,04,24,07,28,4.90
2009,04,24,07,29,4.90
2009,04,24,07,30,4.90
2009,04,24,07,31,4.90
2009,04,24,07,32,5.00
2009,04,24,07,33,5.00
2009,04,24,07,34,5.00
2009,04,24,07,35,5.10
2009,04,24,07,36,5.10
2009,04,24,07,37,5.10
2009,04,24,07,38,5.10
2009,04,24,07,39,5.20
2009,04,24,07,40,5.20
2009,04,24,07,41,5.30
2009,04,24,07,42,5.30
2009,04,24,07,43,5.40
2009,04,24,07,44,5.40
2009,04,24,07,45,5.50
2009,04,24,07,46,5.60
2009,04,24,07,47,5.70
2009,04,24,07,48,5.70
2009,04,24,07,49,5.80
2009,04,24,07,50,5.80
2009,04,24,07,51,5.90
2009,04,24,07,52,6.00
2009,04,24,07,53,6.00
2009,04,24,07,54,6.10
2009,04,24,07,55,6.20
2009,04,24,07,56,6.20
2009,04,24,07,57,6.30
2009,04,24,07,58,6.30
2009,04,24,07,59,6.40
2009,04,24,08,00,6.50
2009,04,24,08,01,6.50
2009,04,24,08,02,6.60
2009,04,24,08,03,6.60
2009,04,24,08,04,6.70
2009,04,24,08,05,6.70
2009,04,24,08,06,6.70
2009,04,24,08,07,6.80
2009,04,24,08,08,6.80
2009,04,24,08,09,6.90
2009,04,24,08,10,6.90
2009,04,24,08,11,7.00
2009,04,24,08,12,7.10
2009,04,24,08,13,7.20
2009,04,24,08,14,7.20
2009,04,24,08,15,7.20
2009,04,24,08,16,7.20
2009,04,24,08,17,7.30
2009,04,24,08,18,7.30
2009,04,24,08,19,7.40
2009,04,24,08,20,7.40
2009,04,24,08,21,7.50
2009,04,24,08,22,7.50
2009,04,24,08,23,7.60
2009,04,24,08,24,7.70
2009,04,24,08,25,7.80
2009,04,24,08,26,7.80
2009,04,24,08,27,7.80
2009,04,24,08,28,7.90
2009,04,24,08,29,7.90
2009,04,24,08,30,7.80
2009,04,24,08,31,7.80
2009,04,24,08,32,7.80
2009,04,24,08,33,7.90
2009,04,24,08,34,8.00
2009,04,24,08,35,8.10
2009,04,24,08,36,8.20
2009,04,24,08,37,8.20
2009,04,24,08,38,8.30
2009,04,24,08,39,8.30
2009,04,24,08,40,8.30
2009,04,24,08,41,8.30
2009,04,24,08,42,8.20
2009,04,24,08,43,8.00
2009,04,24,08,44,7.90
2009,04,24,08,45,7.90
2009,04,24,08,46,7.80
2009,04,24,08,47,7.80
2009,04,24,08,48,7.80
2009,04,24,08,49,7.70
2009,04,24,08,50,7.70
2009,04,24,08,51,7.70
2009,04,24,08,52,7.70
2009,04,24,08,53,7.70
2009,04,24,08,54,7.70
2009,04,24,08,55,7.70
2009,04,24,08,56,7.60
2009,04,24,08,57,7.60
2009,04,24,08,58,7.50
2009,04,24,08,59,7.40
2009,04,24,09,00,7.40
2009,04,24,09,01,7.40
2009,04,24,09,02,7.50
2009,04,24,09,03,7.60
2009,04,24,09,04,7.70
2009,04,24,09,05,7.80
2009,04,24,09,06,7.80
2009,04,24,09,07,7.90
2009,04,24,09,08,7.90
2009,04,24,09,09,7.90
2009,04,24,09,10,7.90
2009,04,24,09,11,7.90
2009,04,24,09,12,7.90
2009,04,24,09,13,7.90
2009,04,24,09,14,7.90
2009,04,24,09,15,7.90
2009,04,24,09,16,7.90
2009,04,24,09,17,7.80
2009,04,24,09,18,7.80
2009,04,24,09,19,7.70
2009,04,24,09,20,7.70
2009,04,24,09,21,7.80
2009,04,24,09,22,7.80
2009,04,24,09,23,7.80
2009,04,24,09,24,7.80
2009,04,24,09,25,7.80
2009,04,24,09,26,7.80
2009,04,24,09,27,7.90
2009,04,24,09,28,7.90
2009,04,24,09,29,8.00
2009,04,24,09,30,8.00
2009,04,24,09,31,8.00
2009,04,24,09,32,8.00
2009,04,24,09,33,8.00
2009,04,24,09,34,8.00
2009,04,24,09,35,8.00
2009,04,24,09,36,8.00
2009,04,24,09,37,8.00
2009,04,24,09,38,8.00
2009,04,24,09,39,8.00
2009,04,24,09,40,8.00
2009,04,24,09,41,8.10
2009,04,24,09,42,8.10
2009,04,24,09,43,8.20
2009,04,24,09,44,8.30
2009,04,24,09,45,8.40
2009,04,24,09,46,8.40
2009,04,24,09,47,8.40
2009,04,24,09,48,8.40
2009,04,24,09,49,8.40
2009,04,24,09,50,8.50
2009,04,24,09,51,8.50
2009,04,24,09,52,8.60
2009,04,24,09,53,8.60
2009,04,24,09,54,8.70
2009,04,24,09,55,8.70
2009,04,24,09,56,8.70
2009,04,24,09,57,8.70
2009,04,24,09,58,8.70
2009,04,24,09,59,8.70
2009,04,24,10,00,8.70
2009,04,24,10,01,8.60
2009,04,24,10,02,8.60
2009,04,24,10,03,8.60
2009,04,24,10,04,8.70
2009,04,24,10,05,8.80
2009,04,24,10,06,8.90
2009,04,24,10,07,8.90
2009,04,24,10,08,9.00
2009,04,24,10,09,9.00
2009,04,24,10,10,8.90
2009,04,24,10,11,8.80
2009,04,24,10,12,8.70
2009,04,24,10,13,8.60
2009,04,24,10,14,8.50
2009,04,24,10,15,8.60
2009,04,24,10,16,8.60
2009,04,24,10,17,8.70
2009,04,24,10,18,8.70
2009,04,24,10,19,8.70
2009,04,24,10,20,8.70
2009,04,24,10,21,8.60
2009,04,24,10,22,8.60
2009,04,24,10,23,8.60
2009,04,24,10,24,8.60
2009,04,24,10,25,8.70
2009,04,24,10,26,8.60
2009,04,24,10,27,8.50
2009,04,24,10,28,8.50
2009,04,24,10,29,8.40
2009,04,24,10,30,8.40
2009,04,24,10,31,8.50
2009,04,24,10,32,8.50
2009,04,24,10,33,8.50
2009,04,24,10,34,8.50
2009,04,24,10,35,8.50
2009,04,24,10,36,8.50
2009,04,24,10,37,8.50
2009,04,24,10,38,8.50
2009,04,24,10,39,8.60
2009,04,24,10,40,8.70
2009,04,24,10,41,8.60
2009,04,24,10,42,8.50
2009,04,24,10,43,8.40
2009,04,24,10,44,8.40
2009,04,24,10,45,8.30
2009,04,24,10,46,8.20
2009,04,24,10,47,8.30
2009,04,24,10,48,8.40
2009,04,24,10,49,8.40
2009,04,24,10,50,8.30
2009,04,24,10,51,8.20
2009,04,24,10,52,8.10
2009,04,24,10,53,8.10
2009,04,24,10,54,8.10
2009,04,24,10,55,8.10
2009,04,24,10,56,8.10
2009,04,24,10,57,8.10
2009,04,24,10,58,8.30
2009,04,24,10,59,8.40
2009,04,24,11,00,8.60
2009,04,24,11,01,8.60
2009,04,24,11,02,8.50
2009,04,24,11,03,8.40
2009,04,24,11,04,8.40
2009,04,24,11,05,8.40
2009,04,24,11,06,8.40
2009,04,24,11,07,8.40
2009,04,24,11,08,8.40
2009,04,24,11,09,8.40
2009,04,24,11,10,8.40
2009,04,24,11,11,8.40
2009,04,24,11,12,8.30
2009,04,24,11,13,8.40
2009,04,24,11,14,8.50
2009,04,24,11,15,8.60
2009,04,24,11,16,8.40
2009,04,24,11,17,8.30
2009,04,24,11,18,8.20
2009,04,24,11,19,8.20
2009,04,24,11,20,8.30
2009,04,24,11,21,8.30
2009,04,24,11,22,8.20
2009,04,24,11,23,8.20
2009,04,24,11,24,8.10
2009,04,24,11,25,8.10
2009,04,24,11,26,8.10
2009,04,24,11,27,8.10
2009,04,24,11,28,8.10
2009,04,24,11,29,8.20
2009,04,24,11,30,8.20
2009,04,24,11,31,8.10
2009,04,24,11,32,8.20
2009,04,24,11,33,8.20
2009,04,24,11,34,8.30
2009,04,24,11,35,8.50
2009,04,24,11,36,8.50
2009,04,24,11,37,8.50
2009,04,24,11,38,8.40
2009,04,24,11,39,8.40
2009,04,24,11,40,8.40
2009,04,24,11,41,8.40
2009,04,24,11,42,8.50
2009,04,24,11,43,8.50
2009,04,24,11,44,8.40
2009,04,24,11,45,8.50
2009,04,24,11,46,8.40
2009,04,24,11,47,8.30
2009,04,24,11,48,8.30
2009,04,24,11,49,8.30
2009,04,24,11,50,8.30
2009,04,24,11,51,8.40
2009,04,24,11,52,8.50
2009,04,24,11,53,8.50
2009,04,24,11,54,8.70
2009,04,24,11,55,8.80
2009,04,24,11,56,8.80
2009,04,24,11,57,8.80
2009,04,24,11,58,8.70
2009,04,24,11,59,8.60
2009,04,24,12,00,8.50
2009,04,24,12,01,8.50
2009,04,24,12,02,8.60
2009,04,24,12,03,8.70
2009,04,24,12,04,8.80
2009,04,24,12,05,8.90
2009,04,24,12,06,9.00
2009,04,24,12,07,9.10
2009,04,24,12,08,9.20
2009,04,24,12,09,9.10
2009,04,24,12,10,9.00
2009,04,24,12,11,8.90
2009,04,24,12,12,8.80
2009,04,24,12,13,8.70
2009,04,24,12,14,8.80
2009,04,24,12,15,8.60
2009,04,24,12,16,8.50
2009,04,24,12,17,8.50
2009,04,24,12,18,8.60
2009,04,24,12,19,8.60
2009,04,24,12,20,8.60
2009,04,24,12,21,8.70
2009,04,24,12,22,8.60
2009,04,24,12,23,8.50
2009,04,24,12,24,8.50
2009,04,24,12,25,8.50
2009,04,24,12,26,8.60
2009,04,24,12,27,8.80
2009,04,24,12,28,8.80
2009,04,24,12,29,8.80
2009,04,24,12,30,8.80
2009,04,24,12,31,8.90
2009,04,24,12,32,8.90
2009,04,24,12,33,9.00
2009,04,24,12,34,8.90
2009,04,24,12,35,8.70
2009,04,24,12,36,8.50
2009,04,24,12,37,8.50
2009,04,24,12,38,8.60
2009,04,24,12,39,8.80
2009,04,24,12,40,8.80
2009,04,24,12,41,8.70
2009,04,24,12,42,8.70
2009,04,24,12,43,8.70
2009,04,24,12,44,8.60
2009,04,24,12,45,8.60
2009,04,24,12,46,8.80
2009,04,24,12,47,8.90
2009,04,24,12,48,8.90
2009,04,24,12,49,8.90
2009,04,24,12,50,8.70
2009,04,24,12,51,8.50
2009,04,24,12,52,8.30
2009,04,24,12,53,8.20
2009,04,24,12,54,8.20
2009,04,24,12,55,8.40
2009,04,24,12,56,8.40
2009,04,24,12,57,8.40
2009,04,24,12,58,8.50
2009,04,24,12,59,8.60
2009,04,24,13,00,8.80
2009,04,24,13,01,8.90
2009,04,24,13,02,8.90
2009,04,24,13,03,9.00
2009,04,24,13,04,9.10
2009,04,24,13,05,9.30
2009,04,24,13,06,9.30
2009,04,24,13,07,9.30
2009,04,24,13,08,9.20
2009,04,24,13,09,9.20
2009,04,24,13,10,9.20
2009,04,24,13,11,9.10
2009,04,24,13,12,9.00
2009,04,24,13,13,8.90
2009,04,24,13,14,9.00
2009,04,24,13,15,9.00
2009,04,24,13,16,9.10
2009,04,24,13,17,9.20
2009,04,24,13,18,9.30
2009,04,24,13,19,9.40
2009,04,24,13,20,9.30
2009,04,24,13,21,9.40
2009,04,24,13,22,9.50
2009,04,24,13,23,9.60
2009,04,24,13,24,9.70
2009,04,24,13,25,9.60
2009,04,24,13,26,9.50
2009,04,24,13,27,9.20
2009,04,24,13,28,8.90
2009,04,24,13,29,8.90
2009,04,24,13,30,9.00
2009,04,24,13,31,9.00
2009,04,24,13,32,9.00
2009,04,24,13,33,8.90
2009,04,24,13,34,9.00
2009,04,24,13,35,9.10
2009,04,24,13,36,9.10
2009,04,24,13,37,9.10
2009,04,24,13,38,9.20
2009,04,24,13,39,9.30
2009,04,24,13,40,9.30
2009,04,24,13,41,9.20
2009,04,24,13,42,9.10
2009,04,24,13,43,9.10
2009,04,24,13,44,9.10
2009,04,24,13,45,9.00
2009,04,24,13,46,9.00
2009,04,24,13,47,9.00
2009,04,24,13,48,9.10
2009,04,24,13,49,9.30
2009,04,24,13,50,9.20
2009,04,24,13,51,9.10
2009,04,24,13,52,9.10
2009,04,24,13,53,9.10
2009,04,24,13,54,9.00
2009,04,24,13,55,9.00
2009,04,24,13,56,8.90
2009,04,24,13,57,8.90
2009,04,24,13,58,8.90
2009,04,24,13,59,8.90
2009,04,24,14,00,9.00
2009,04,24,14,01,9.20
2009,04,24,14,02,9.20
2009,04,24,14,03,9.10
2009,04,24,14,04,9.10
2009,04,24,14,05,9.10
2009,04,24,14,06,9.10
2009,04,24,14,07,9.00
2009,04,24,14,08,8.90
2009,04,24,14,09,8.80
2009,04,24,14,10,8.80
2009,04,24,14,11,8.80
2009,04,24,14,12,8.70
2009,04,24,14,13,8.80
2009,04,24,14,14,8.90
2009,04,24,14,15,8.90
2009,04,24,14,16,9.00
2009,04,24,14,17,8.90
2009,04,24,14,18,8.90
2009,04,24,14,19,9.00
2009,04,24,14,20,9.10
2009,04,24,14,21,9.10
2009,04,24,14,22,9.30
2009,04,24,14,23,9.30
2009,04,24,14,24,9.30
2009,04,24,14,25,9.30
2009,04,24,14,26,9.30
2009,04,24,14,27,9.30
2009,04,24,14,28,9.50
2009,04,24,14,29,9.60
2009,04,24,14,30,9.50
2009,04,24,14,31,9.50
2009,04,24,14,32,9.60
2009,04,24,14,33,9.60
2009,04,24,14,34,9.70
2009,04,24,14,35,9.50
2009,04,24,14,36,9.40
2009,04,24,14,37,9.30
2009,04,24,14,38,9.40
2009,04,24,14,39,9.50
2009,04,24,14,40,9.60
2009,04,24,14,41,9.60
2009,04,24,14,42,9.70
2009,04,24,14,43,9.70
2009,04,24,14,44,9.80
2009,04,24,14,45,9.80
2009,04,24,14,46,9.80
2009,04,24,14,47,9.90
2009,04,24,14,48,10.10
2009,04,24,14,49,10.20
2009,04,24,14,50,10.30
2009,04,24,14,51,10.30
2009,04,24,14,52,10.30
2009,04,24,14,53,10.30
2009,04,24,14,54,10.30
2009,04,24,14,55,10.40
2009,04,24,14,56,10.40
2009,04,24,14,57,10.40
2009,04,24,14,58,10.30
2009,04,24,14,59,10.30
2009,04,24,15,00,10.20
2009,04,24,15,01,10.30
2009,04,24,15,02,10.20
2009,04,24,15,03,10.20
2009,04,24,15,04,10.10
2009,04,24,15,05,10.10
2009,04,24,15,06,10.00
2009,04,24,15,07,9.90
2009,04,24,15,08,9.90
2009,04,24,15,09,9.80
2009,04,24,15,10,9.90
2009,04,24,15,11,10.10
2009,04,24,15,12,10.20
2009,04,24,15,13,10.10
2009,04,24,15,14,10.00
2009,04,24,15,15,9.90
2009,04,24,15,16,9.80
2009,04,24,15,17,9.80
2009,04,24,15,18,9.90
2009,04,24,15,19,9.90
2009,04,24,15,20,9.80
2009,04,24,15,21,9.80
2009,04,24,15,22,9.90
2009,04,24,15,23,9.90
2009,04,24,15,24,10.00
2009,04,24,15,25,10.00
2009,04,24,15,26,10.10
2009,04,24,15,27,10.10
2009,04,24,15,28,10.00
2009,04,24,15,29,10.00
2009,04,24,15,30,10.00
2009,04,24,15,31,10.00
2009,04,24,15,32,10.10
2009,04,24,15,33,10.00
2009,04,24,15,34,10.00
2009,04,24,15,35,9.90
2009,04,24,15,36,10.00
2009,04,24,15,37,10.00
2009,04,24,15,38,10.20
2009,04,24,15,39,10.30
2009,04,24,15,40,10.30
2009,04,24,15,41,10.30
2009,04,24,15,42,10.30
2009,04,24,15,43,10.40
2009,04,24,15,44,10.40
2009,04,24,15,45,10.40
2009,04,24,15,46,10.50
2009,04,24,15,47,10.60
2009,04,24,15,48,10.70
2009,04,24,15,49,10.80
2009,04,24,15,50,11.00
2009,04,24,15,51,11.20
2009,04,24,15,52,11.30
2009,04,24,15,53,11.40
2009,04,24,15,54,11.60
2009,04,24,15,55,11.70
2009,04,24,15,56,11.90
2009,04,24,15,57,12.10
2009,04,24,15,58,12.30
2009,04,24,15,59,12.70
2009,04,24,16,00,13.00
2009,04,24,16,01,13.50
2009,04,24,16,02,13.80
2009,04,24,16,03,14.10
2009,04,24,16,04,14.40
2009,04,24,16,05,14.50
2009,04,24,16,06,14.70
2009,04,24,16,07,14.80
2009,04,24,16,08,14.90
2009,04,24,16,09,15.00
2009,04,24,16,10,15.00
2009,04,24,16,11,15.00
2009,04,24,16,12,15.00
2009,04,24,16,13,15.10
2009,04,24,16,14,15.20
2009,04,24,16,15,15.20
2009,04,24,16,16,15.30
2009,04,24,16,17,15.30
2009,04,24,16,18,15.40
2009,04,24,16,19,15.40
2009,04,24,16,20,15.40
2009,04,24,16,21,15.30
2009,04,24,16,22,15.30
2009,04,24,16,23,15.40
2009,04,24,16,24,15.40
2009,04,24,16,25,15.40
2009,04,24,16,26,15.30
2009,04,24,16,27,15.30
2009,04,24,16,28,15.40
2009,04,24,16,29,15.40
2009,04,24,16,30,15.30
2009,04,24,16,31,15.20
2009,04,24,16,32,15.00
2009,04,24,16,33,15.00
2009,04,24,16,34,15.00
2009,04,24,16,35,15.00
2009,04,24,16,36,15.00
2009,04,24,16,37,15.00
2009,04,24,16,38,15.10
2009,04,24,16,39,15.30
2009,04,24,16,40,15.30
2009,04,24,16,41,15.30
2009,04,24,16,42,15.30
2009,04,24,16,43,15.30
2009,04,24,16,44,15.30
2009,04,24,16,45,15.20
2009,04,24,16,46,15.20
2009,04,24,16,47,15.20
2009,04,24,16,48,15.20
2009,04,24,16,49,15.10
2009,04,24,16,50,15.00
2009,04,24,16,51,15.10
2009,04,24,16,52,15.20
2009,04,24,16,53,15.30
2009,04,24,16,54,15.30
2009,04,24,16,55,15.40
2009,04,24,16,56,15.50
2009,04,24,16,57,15.50
2009,04,24,16,58,15.50
2009,04,24,16,59,15.50
2009,04,24,17,00,15.40
2009,04,24,17,01,15.50
2009,04,24,17,02,15.50
2009,04,24,17,03,15.60
2009,04,24,17,04,15.50
2009,04,24,17,05,15.40
2009,04,24,17,06,15.30
2009,04,24,17,07,15.20
2009,04,24,17,08,15.10
2009,04,24,17,09,15.00
2009,04,24,17,10,15.00
2009,04,24,17,11,15.00
2009,04,24,17,12,15.00
2009,04,24,17,13,15.00
2009,04,24,17,14,15.00
2009,04,24,17,15,15.00
2009,04,24,17,16,15.00
2009,04,24,17,17,15.00
2009,04,24,17,18,15.00
2009,04,24,17,19,15.00
2009,04,24,17,20,15.00
2009,04,24,17,21,15.00
2009,04,24,17,22,15.00
2009,04,24,17,23,14.90
2009,04,24,17,24,14.90
2009,04,24,17,25,14.90
2009,04,24,17,26,15.00
2009,04,24,17,27,15.00
2009,04,24,17,28,14.80
2009,04,24,17,29,14.80
2009,04,24,17,30,14.70
2009,04,24,17,31,14.70
2009,04,24,17,32,14.70
2009,04,24,17,33,14.60
2009,04,24,17,34,14.60
2009,04,24,17,35,14.70
2009,04,24,17,36,14.70
2009,04,24,17,37,14.70
2009,04,24,17,38,14.70
2009,04,24,17,39,14.70
2009,04,24,17,40,14.60
2009,04,24,17,41,14.60
2009,04,24,17,42,14.70
2009,04,24,17,43,14.70
2009,04,24,17,44,14.70
2009,04,24,17,45,14.80
2009,04,24,17,46,14.70
2009,04,24,17,47,14.60
2009,04,24,17,48,14.60
2009,04,24,17,49,14.60
2009,04,24,17,50,14.60
2009,04,24,17,51,14.60
2009,04,24,17,52,14.60
2009,04,24,17,53,14.50
2009,04,24,17,54,14.50
2009,04,24,17,55,14.40
2009,04,24,17,56,14.40
2009,04,24,17,57,14.40
2009,04,24,17,58,14.40